www.pogodaiklimat.ru

Погода и климат >> Архив погоды >> Австралия >> Западная Австралия >> Аэропорт Аргайл


ПОГОДА в Аэропорту Аргайл

  • Прогноз погоды в Аэропорту Аргайл
  • Монитор погоды в Аэропорту Аргайл

АРХИВ ПОГОДЫ в Аэропорту Аргайл

Время (UTC), дата Ветер
(напр.,м/с)
 
Видим.   Явления Облачность Т
(С)
Тd
(С)
f
(%)
Тe
(С)
Тes
(С)
Комфортность P
(гПа)
Po
(гПа)
Тmin
(С)
Tmax
(С)
R
(мм)
R24
(мм)
S
(см)
21 15.08 З 3 н/о н/о +14.3 -6.5 23 +14 +14 1016.4 997.4
00 16.08 ЮВ 3 н/о н/о +23.6 -7.4 12 +21 +21 комфорт 1018.1 999.1
01 16.08 ЮВ 3 н/о н/о +26.5 -6.3 11 +24 +24 комфорт 1018.3 999.3
03 16.08 С 3 н/о н/о +29.9 -5.0 10 +26 +26 жарко 1016.9 997.9
04 16.08 СЗ 2 н/о н/о +31.4 -3.8 10 +28 +28 жарко 1015.7 996.8
06 16.08 СЗ 3 н/о н/о +32.1 -2.0 11 +29 +29 жарко 1014.1 995.2
07 16.08 СЗ 2 н/о н/о +32.6 -2.9 10 +29 +29 жарко 1013.7 994.8
10 16.08 СВ 3 н/о н/о +27.3 -1.6 15 +25 +25 комфорт 1014.3 995.4
12 16.08 З 3 н/о н/о +24.3 -0.8 19 +23 +23 комфорт 1015.4 996.5
13 16.08 З 3 н/о н/о +22.9 -1.2 20 +22 +22 комфорт 1015.5 996.6
15 16.08 СЗ 3 н/о н/о +20.8 -1.1 23 +21 +21 комфорт 1015.2 996.3
18 16.08 З 3 н/о н/о +20.2 -0.4 25 +21 +21 комфорт 1014.5 995.6
19 16.08 З 2 н/о н/о +20.5 -0.2 25 +21 +21 комфорт 1014.6 995.7
21 16.08 Ю 2 н/о н/о +18.5 -0.3 28 +19 +19 1014.8 995.9
22 16.08 Ю 3 н/о н/о +18.3 -1.0 27 +18 +18 1015.3 996.4
00 17.08 В 2 н/о н/о +25.6 +2.3 22 +24 +24 комфорт 1016.6 997.6
01 17.08 СЗ 1 н/о н/о +28.3 +3.2 20 +27 +27 жарко 1016.5 997.5
03 17.08 СЗ 2 н/о н/о +32.7 +1.7 14 +30 +30 жарко 1015.3 996.4
04 17.08 З 3 н/о н/о +32.5 +0.6 13 +29 +29 жарко 1014.5 995.6
06 17.08 З 2 н/о н/о +33.9 +1.6 13 +31 +31 жарко 1012.9 994.0
07 17.08 Ю 2 н/о н/о +34.6 +2.2 13 +31 +31 жарко 1012.7 993.8
10 17.08 В 2 н/о н/о +28.5 +2.7 19 +27 +27 жарко 1013.7 994.8
12 17.08 З 3 н/о н/о +26.2 +3.5 23 +25 +25 комфорт 1015.0 996.1
13 17.08 ЮЗ 3 н/о н/о +26.7 +3.2 22 +25 +25 комфорт 1015.3 996.4
15 17.08 СЗ 3 н/о н/о +22.8 +2.8 27 +22 +22 комфорт 1015.8 996.9
16 17.08 штиль 0 н/о н/о +22.5 +3.1 28 +22 +22 комфорт 1015.8 996.9
18 17.08 Ю 3 н/о н/о +23.8 -1.2 19 +22 +22 комфорт 1015.4 996.5
19 17.08 Ю 4 н/о н/о +22.9 -0.6 21 +22 +22 комфорт 1015.4 996.5
21 17.08 ЮВ 2 н/о н/о +18.7 -1.2 26 +19 +19 1016.3 997.3
22 17.08 Ю 2 н/о н/о +19.4 -0.1 27 +20 +20 1017.0 998.0
00 18.08 Ю 3 н/о н/о +26.0 +3.9 24 +25 +25 комфорт 1017.9 998.9
01 18.08 Ю 6 н/о н/о +27.7 +3.4 21 +26 +26 жарко 1018.0 999.0 +18.5
03 18.08 ЮВ 5 н/о н/о +30.7 +2.9 17 +28 +28 жарко 1016.8 997.8
04 18.08 ЮВ 5 н/о н/о +31.7 +1.9 15 +29 +29 жарко 1015.8 996.9
06 18.08 ЮВ 5 н/о н/о +33.0 +0.9 13 +30 +30 жарко 1013.7 994.8
07 18.08 ЮВ 4 н/о н/о +33.1 +1.0 13 +30 +30 жарко 1013.3 994.4
10 18.08 Ю 3 н/о н/о +29.3 +1.7 17 +27 +27 жарко 1014.5 995.6
12 18.08 Ю 3 н/о н/о +28.0 +1.5 18 +26 +26 жарко 1015.5 996.6
13 18.08 Ю 3 н/о н/о +27.6 +1.9 19 +26 +26 жарко 1015.7 996.8 +33.7
15 18.08 ЮЗ 3 н/о н/о +26.3 +0.1 18 +24 +24 комфорт 1016.1 997.2
16 18.08 Ю 3 н/о н/о +25.5 -2.1 16 +23 +23 комфорт 1016.3 997.3
18 18.08 Ю 4 н/о н/о +25.2 -5.1 13 +23 +23 комфорт 1015.8 996.9
19 18.08 Ю 4 н/о н/о +24.5 -5.7 13 +22 +22 комфорт 1015.7 996.8
21 18.08 Ю 3 н/о н/о +21.9 -5.0 16 +21 +21 комфорт 1017.3 998.3
22 18.08 Ю 5 н/о н/о +22.7 -4.4 16 +21 +21 комфорт 1018.2 999.2
00 19.08 ЮВ 7 н/о н/о +25.6 -1.2 17 +24 +24 комфорт 1019.3 1000.3
01 19.08 ЮВ 7 н/о н/о +26.4 -0.6 17 +24 +24 комфорт 1019.4 1000.4 +21.7
03 19.08 В 5 н/о н/о +29.9 +1.4 16 +27 +27 жарко 1018.0 999.0
04 19.08 В 5 н/о н/о +30.6 +1.0 15 +28 +28 жарко 1016.9 997.9
06 19.08 ЮВ 5 н/о н/о +32.8 +0.8 13 +30 +30 жарко 1014.8 995.9
07 19.08 ЮВ 6 н/о н/о +32.5 +1.6 14 +29 +29 жарко 1014.5 995.6
10 19.08 ЮВ 4 н/о н/о +28.6 +2.0 18 +26 +26 жарко 1016.5 997.5
12 19.08 ЮВ 5 н/о н/о +27.1 +0.8 18 +25 +25 комфорт 1018.8 999.8
13 19.08 ЮВ 6 н/о н/о +26.3 -2.4 15 +24 +24 комфорт 1019.3 1000.3 +33.5
15 19.08 ЮВ 4 н/о н/о +24.3 -4.0 15 +22 +22 комфорт 1019.9 1000.9
16 19.08 ЮВ 4 н/о 4/0 2000 м
[]
+24.2 -4.9 14 +22 +22 комфорт 1019.9 1000.9
18 19.08 ЮВ 5 н/о н/о +23.5 -4.6 15 +22 +22 комфорт 1019.8 1000.8
19 19.08 ЮВ 6 н/о 8/0
[]
+22.7 -4.4 16 +21 +21 комфорт 1020.0 1001.0
21 19.08 ЮВ 5 н/о н/о +21.3 -3.2 19 +20 +20 1021.1 1002.1
22 19.08 ЮВ 5 н/о 1/0
[]
+20.2 -3.4 20 +20 +20 1022.5 1003.4
00 20.08 ЮВ 7 н/о н/о +20.3 -3.4 20 +20 +20 1023.8 1004.7
01 20.08 ЮВ 7 н/о 1/0
[]
+21.6 -3.0 19 +21 +23 комфорт 1024.0 1004.9 +20.1
03 20.08 ЮВ 6 н/о н/о +24.4 -4.8 14 +22 +22 комфорт 1022.0 1002.9
04 20.08 ЮВ 7 н/о н/о +25.8 -4.7 13 +23 +23 комфорт 1020.6 1001.6
06 20.08 ЮВ 5 н/о н/о +26.9 -6.0 11 +24 +24 комфорт 1018.3 999.3
07 20.08 ЮВ 5 н/о н/о +28.1 -6.3 10 +25 +25 комфорт 1017.9 998.9
10 20.08 ЮВ 4 н/о н/о +24.6 -7.8 11 +22 +22 комфорт 1018.8 999.8
12 20.08 ЮВ 4 н/о н/о +22.6 -8.2 12 +21 +21 комфорт 1020.3 1001.3
13 20.08 ЮВ 4 н/о н/о +21.7 -7.9 13 +20 +20 1020.9 1001.9 +28.5
15 20.08 ЮВ 2 н/о н/о +19.6 -8.6 14 +20 +20 1021.2 1002.2
16 20.08 ЮВ 3 н/о н/о +19.7 -8.5 14 +20 +20 1021.0 1002.0
18 20.08 ЮВ 4 н/о н/о +19.2 -8.9 14 +19 +19 1020.2 1001.2
19 20.08 ЮВ 3 н/о н/о +17.6 -8.5 16 +18 +18 1020.3 1001.3
21 20.08 ЮВ 4 н/о н/о +16.7 -7.7 18 +16 +16 1021.3 1002.3
22 20.08 ЮВ 4 н/о н/о +16.6 -7.8 18 +16 +16 1022.3 1003.2
00 21.08 ЮВ 7 н/о н/о +19.7 -7.6 15 +19 +19 1023.2 1004.1
01 21.08 ЮВ 7 н/о н/о +20.8 -8.6 13 +20 +20 1022.9 1003.8 +16.4
03 21.08 ЮВ 5 н/о н/о +22.8 -8.1 12 +21 +21 комфорт 1020.4 1001.4
04 21.08 ЮВ 4 н/о н/о +24.3 -6.9 12 +22 +22 комфорт 1019.1 1000.1
06 21.08 ЮВ 4 н/о н/о +25.9 -8.0 10 +23 +23 комфорт 1017.1 998.1
07 21.08 ЮВ 5 н/о н/о +26.7 -7.4 10 +24 +24 комфорт 1016.4 997.4
10 21.08 ЮВ 3 н/о н/о +23.4 -7.6 12 +21 +21 комфорт 1017.3 998.3
12 21.08 ЮВ 4 н/о н/о +21.2 -9.3 12 +20 +20 1018.6 999.6
13 21.08 ЮВ 3 н/о н/о +19.2 -9.8 13 +19 +19 1019.1 1000.1 +27.8
15 21.08 ЮВ 3 н/о н/о +17.3 -8.7 16 +17 +17 1019.2 1000.2
16 21.08 ЮВ 4 н/о н/о +17.2 -8.8 16 +17 +17 1019.0 1000.0
18 21.08 ЮВ 3 н/о н/о +16.1 -9.7 16 +16 +16 1018.7 999.7
19 21.08 СВ 1 н/о н/о +15.3 -8.8 18 +16 +16 1018.7 999.7
21 21.08 штиль 0 н/о н/о +14.9 -9.9 17 +15 +15 1019.6 1000.6
22 21.08 З 1 н/о н/о +15.9 -9.9 16 +18 +18 1020.6 1001.6
00 22.08 В 4 н/о н/о +21.1 -9.4 12 +20 +20 1021.7 1002.6
01 22.08 В 5 н/о н/о +22.8 -8.1 12 +21 +21 комфорт 1021.2 1002.2 +14.7
03 22.08 В 4 н/о н/о +26.3 -6.5 11 +23 +23 комфорт 1019.1 1000.1
04 22.08 В 4 н/о н/о +27.6 -5.5 11 +25 +25 комфорт 1018.0 999.0
06 22.08 В 3 н/о н/о +29.1 -4.3 11 +26 +26 жарко 1016.3 997.3
07 22.08 Ю 3 н/о н/о +29.5 -4.0 11 +26 +26 жарко 1015.9 997.0
10 22.08 штиль 0 н/о н/о +25.5 -3.9 14 +23 +23 комфорт 1017.4 998.4
12 22.08 З 3 н/о н/о +22.4 -3.8 17 +21 +21 комфорт 1018.4 999.4
13 22.08 ЮЗ 2 н/о н/о +23.2 -4.0 16 +21 +21 комфорт 1018.5 999.5 +30.3

 

Местоположение метеостанции Аэропорт Аргайл (Западная Австралия, Австралия): широта -16.63 долгота 128.45 высота над уровнем моря 165 м.

В архиве по умолчанию представлена погода в Аэропорту Аргайл за последнюю неделю. Архивные данные за месяц целиком и за предыдущие месяцы, начиная с января 2011 года, Вы можете получить, выбрав интересующий диапазон дат из раскрывающегося списка и нажав кнопку "Ввод!".


*Определитесь, кто Вы:
робот инопланетянин человек

Внимание! Время в таблицах - всемирное. Для получения местного времени необходимо прибавить поправку, которая равна 8 ч.

Смотрите также архив погоды в соседних городах и на ближайших метеорологических станциях:

Погода в Кунунарре (Западная Австралия, Австралия) (99 км)
Погода в Уиндеме (Западная Австралия, Австралия) (130 км)
Погода в Холс Крик (Западная Австралия, Австралия) (197 км)
Погода в Виктория-Ривер (Северная территория, Австралия) (275 км)
Погода в Порт Китс (Северная территория, Австралия) (289 км)
Погода в Ладжаману (Северная территория, Австралия) (299 км)
Погода в Манбуллу Ксиро (Северная территория, Австралия) (313 км)
Погода в Калумбуру (Западная Австралия, Австралия) (323 км)
Погода в Фицрой-Кроссинге (Западная Австралия, Австралия) (352 км)
Погода в Трускотте (Западная Австралия, Австралия) (360 км)

Пояснения к столбцам:

Ветер - указаны скорость ветра в м/с - средняя за 10 мин, порывы в срок и между сроками (в фигурных скобках) и направление, откуда дует ветер: С - северный, СВ - северо-восточный, В - восточный, ЮВ - юго-восточный, Ю - южный, ЮЗ - юго-западный, З - западный, СЗ - северо-западный.
Видимость - горизонтальная дальность видимости в метрах или километрах. При видимости от 1 до 10 км при отсутствии осадков обычно наблюдается дымка, при ухудшении видимости до 1 км и менее - туман. В сухую погоду видимость может ухудшаться дымом, пылью или мглою.
Явления - указаны атмосферные явления, наблюдавшиеся в срок или в последний час перед сроком; фигурными скобками обозначены явления, наблюдавшиеся между сроками (за 1-3 часа до срока); квадратными скобками обозначены град или гололедные отложения с указанием их диаметра в мм.
Облачность - указаны через наклонную черту общая и нижняя облачность в баллах и высота нижней границы облаков в метрах; квадратными скобками обозначены формы облаков: Ci - перистые, Cs - перисто-слоистые, Cc - перисто-кучевые, Ac - высококучевые, As - высокослоистые, Sc - слоисто-кучевые, Ns - слоисто-дождевые, Cu - кучевые, Cb - кучево-дождевые. Подробнее классификацию облаков см. в Атласе облаков (PDF).
T - Температура воздуха - температура, измеренная на высоте 2 м над землей.
Td - Температура точки росы - температура, при понижении до которой содержащийся в воздухе водяной пар достигнет насыщения.
f - Относительная влажность воздуха - влажноcть воздуха, измеренная на высоте 2 м над землей.
Te - Эффективная температура - температура, которую ощущает одетый по сезону человек в тени. Характеристика душности погоды. При расчете учитывается влияние влажности воздуха и скорости ветра на теплоощущения человека.
Tes - Эффективная температура на солнце - температура, которую ощущает человек, с поправкой на солнечный нагрев. Характеристика знойности погоды. Зависит от высоты солнца над горизонтом, облачности и скорости ветра. Ночью, в пасмурную погоду, а также при ветре 12 м/с и более поправка равна нулю.
P - Атмосферное давление - приведенное к уровню моря атмосферное давление.
Po - Атмосферное давление - измеренное на уровне метеостанции атмосферное давление.
Tmin - Минимальная температура - минимум температуры воздуха на высоте 2 м над землей.
Tmax - Максимальная температура - максимум температуры воздуха на высоте 2 м над землей.
R - Количество осадков - Количество выпавших осадков за период времени, мм. При наведении курсора мыши на число - период времени, за который выпало указанное количество осадков.
R24 - Количество осадков - Количество выпавших осадков за 24 часа, мм.
S - Снежный покров - Высота снежного покрова, см. При наведении курсора мыши на число - состояние снежного покрова и степень покрытия местности в баллах.